{"data":{"norad_id":56450,"epoch":"2026-05-24T22:06:13.041792Z","epoch_age_seconds":85104,"freshness":"FRESH","line1":"1 56450U 23064C   26144.92098428 -.00001474  00000+0 -11578-3 0  9996","line2":"2 56450  70.0005 312.2930 0002631 270.5989  89.4869 14.98327641166660","mean_motion":14.98327641,"eccentricity":0.0002631,"inclination_deg":70.0005,"raan_deg":312.293,"arg_perigee_deg":270.5989,"mean_anomaly_deg":89.4869,"bstar":-0.00011578,"rev_number":16666,"period_min":96.107150438667,"perigee_km":570.23458829797,"apogee_km":573.89178363582,"semimajor_km":6950.2001859669,"source":"CELESTRAK","updated_at":"2026-05-25T13:38:18.066067Z"}}